This is the latest recevied weather packets stored in our database for station/object KK6LVQ-13. If no packets are shown the sender has not sent any weather packets the latest 10 day(s).
| Time | Temp. | Humidity | Pressure | Rain* | Wind** | Luminosity | Snow |
|---|---|---|---|---|---|---|---|
| 1778119234 | 15° C | 85% | 1023.3 hPa | 0 mm | - | 58 W/m² | - |
| 1778118932 | 15° C | 84% | 1023.3 hPa | 0 mm | - | 67 W/m² | - |
| 1778118630 | 16.11° C | 82% | 1023.3 hPa | 0 mm | - | 77 W/m² | - |
| 1778118326 | 16.11° C | 82% | 1023.2 hPa | 0 mm | - | 90 W/m² | - |
| 1778118022 | 16.11° C | 81% | 1023.1 hPa | 0 mm | - | 101 W/m² | - |
| 1778117718 | 16.11° C | 81% | 1023.1 hPa | 0 mm | - | 113 W/m² | - |
| 1778117416 | 16.67° C | 80% | 1023.1 hPa | 0 mm | - | 126 W/m² | - |
| 1778117113 | 16.67° C | 79% | 1023.1 hPa | 0 mm | - | 139 W/m² | - |
| 1778116809 | 16.67° C | 79% | 1023.3 hPa | 0 mm | - | 153 W/m² | - |
| 1778116507 | 16.67° C | 79% | 1023.1 hPa | 0 mm | - | 166 W/m² | - |
| 1778116202 | 16.67° C | 79% | 1023 hPa | 0 mm | - | 180 W/m² | - |
| 1778115897 | 17.22° C | 78% | 1023.2 hPa | 0 mm | - | 195 W/m² | - |
| 1778115594 | 17.22° C | 77% | 1023.2 hPa | 0 mm | - | 211 W/m² | - |
| 1778115292 | 17.78° C | 77% | 1022.9 hPa | 0 mm | - | 226 W/m² | - |
| 1778114988 | 17.78° C | 76% | 1022.9 hPa | 0 mm | - | 242 W/m² | - |
| 1778114684 | 17.78° C | 76% | 1022.9 hPa | 0 mm | - | 259 W/m² | - |
| 1778114382 | 17.78° C | 75% | 1022.9 hPa | 0 mm | - | 275 W/m² | - |
| 1778114077 | 18.33° C | 75% | 1022.7 hPa | 0 mm | - | 290 W/m² | - |
| 1778113772 | 18.33° C | 74% | 1022.7 hPa | 0 mm | - | 306 W/m² | - |
| 1778113468 | 18.89° C | 74% | 1022.8 hPa | 0 mm | - | 322 W/m² | - |
| 1778113160 | 18.89° C | 73% | 1022.6 hPa | 0 mm | - | 340 W/m² | - |
| 1778112857 | 18.89° C | 72% | 1022.8 hPa | 0 mm | - | 357 W/m² | - |
| 1778112555 | 19.44° C | 71% | 1022.6 hPa | 0 mm | - | 374 W/m² | - |
| 1778112249 | 19.44° C | 71% | 1022.7 hPa | 0 mm | - | 390 W/m² | - |
| 1778111945 | 19.44° C | 71% | 1022.4 hPa | 0 mm | - | 404 W/m² | - |
* Rain latest hour (hover to see other rain measurements)
** Current wind speed in m/s (hover to see current wind gust speed)